| time (UTC) | temp F | wind direction | speed knots | gust knots | rain 1hr in | rain 24hr in | rain mn in | humidity % | barometer mb |
| 20260506201504 | 70 | 16 | 1.7 | 9.6 | 0.00 | 0.00 | 0.00 | 58 | 1018.1 |
| 20260506200005 | 69 | 323 | 1.7 | 8.7 | 0.00 | 0.00 | 0.00 | 61 | 1018.3 |
| 20260506194502 | 69 | 32 | 3.5 | 7.0 | 0.00 | 0.00 | 0.00 | 59 | 1018.5 |
| 20260506193102 | 69 | 204 | 0.9 | 8.7 | 0.00 | 0.00 | 0.00 | 62 | 1018.5 |
| 20260506191600 | 67 | 201 | 1.7 | 7.0 | 0.00 | 0.00 | 0.00 | 65 | 1018.7 |
| 20260506190055 | 66 | 27 | 3.5 | 6.1 | 0.00 | 0.00 | 0.00 | 65 | 1018.9 |
| 20260506184605 | 66 | 15 | 2.6 | 6.1 | 0.00 | 0.00 | 0.00 | 68 | 1019.1 |
| 20260506183059 | 64 | 323 | 0.9 | 7.0 | 0.00 | 0.00 | 0.00 | 71 | 1019.1 |
| 20260506181547 | 63 | 317 | 3.5 | 7.8 | 0.00 | 0.00 | 0.00 | 71 | 1019.3 |
| 20260506180048 | 61 | 48 | 3.5 | 7.0 | 0.00 | 0.00 | 0.00 | 76 | 1019.4 |
| 20260506174544 | 60 | 16 | 2.6 | 6.1 | 0.00 | 0.00 | 0.00 | 77 | 1019.5 |
| 20260506173050 | 59 | 47 | 0.9 | 6.1 | 0.00 | 0.00 | 0.00 | 80 | 1019.5 |
| 20260506171538 | 58 | 36 | 3.5 | 7.0 | 0.00 | 0.00 | 0.00 | 82 | 1019.5 |
| 20260506170034 | 57 | 325 | 3.5 | 6.1 | 0.00 | 0.00 | 0.00 | 82 | 1019.6 |
| 20260506164528 | 55 | 37 | 4.3 | 7.8 | 0.00 | 0.00 | 0.00 | 86 | 1019.7 |
| 20260506163027 | 54 | 336 | 3.5 | 7.8 | 0.00 | 0.00 | 0.00 | 87 | 1019.9 |
| 20260506161505 | 52 | 342 | 2.6 | 6.1 | 0.00 | 0.00 | 0.00 | 91 | 1019.9 |
| 20260506160010 | 51 | 34 | 3.5 | 6.1 | 0.00 | 0.00 | 0.00 | 90 | 1019.9 |
| 20260506154606 | 51 | 30 | 3.5 | 6.1 | 0.00 | 0.00 | 0.00 | 93 | 1020.0 |
| 20260506154510 | 51 | 49 | 4.3 | 6.1 | 0.00 | 0.00 | 0.00 | 94 | 1020.0 |
| 20260506153055 | 50 | 31 | 2.6 | 5.2 | 0.00 | 0.00 | 0.00 | 97 | 1020.1 |
| 20260506153014 | 50 | 36 | 2.6 | 4.3 | 0.00 | 0.00 | 0.00 | 97 | 1020.1 |
| 20260506151545 | 49 | 133 | 1.7 | 4.3 | 0.00 | 0.00 | 0.00 | 97 | 1020.2 |
| 20260506150043 | 48 | 132 | 2.6 | 4.3 | 0.00 | 0.00 | 0.00 | 97 | 1020.3 |
| 20260506144553 | 47 | 134 | 2.6 | 4.3 | 0.00 | 0.00 | 0.00 | 97 | 1020.3 |
| 20260506143041 | 47 | 135 | 1.7 | 2.6 | 0.00 | 0.00 | 0.00 | 97 | 1020.1 |
| 20260506141540 | 46 | 135 | 1.7 | 2.6 | 0.00 | 0.00 | 0.00 | 96 | 1019.9 |
| 20260506140044 | 47 | 140 | 1.7 | 2.6 | 0.00 | 0.00 | 0.00 | 96 | 1019.8 |
| 20260506134536 | 47 | 142 | 0.9 | 2.6 | 0.00 | 0.00 | 0.00 | 96 | 1019.6 |
| 20260506133034 | 47 | 143 | 0.0 | 1.7 | 0.00 | 0.00 | 0.00 | 96 | 1019.4 |
| 20260506131535 | 47 | 144 | 0.0 | 1.7 | 0.00 | 0.00 | 0.00 | 96 | 1019.3 |
| 20260506130056 | 47 | 144 | 0.0 | 0.0 | 0.00 | 0.00 | 0.00 | 96 | 1019.2 |
| 20260506124531 | 46 | 144 | 0.0 | 0.9 | 0.00 | 0.00 | 0.00 | 96 | 1019.1 |
| 20260506123032 | 46 | 144 | 0.0 | 0.9 | 0.00 | 0.00 | 0.00 | 95 | 1019.0 |
| 20260506121529 | 46 | 160 | 0.0 | 0.0 | 0.00 | 0.00 | 0.00 | 95 | 1018.9 |
| 20260506120040 | 46 | 160 | 0.0 | 0.0 | 0.00 | 0.00 | 0.00 | 95 | 1018.8 |
| 20260506114526 | 46 | 161 | 0.0 | 1.7 | 0.00 | 0.00 | 0.00 | 95 | 1018.6 |
| 20260506113030 | 46 | 162 | 0.9 | 2.6 | 0.00 | 0.00 | 0.00 | 95 | 1018.7 |
| 20260506111522 | 46 | 160 | 0.0 | 0.0 | 0.00 | 0.00 | 0.00 | 95 | 1018.7 |
| 20260506110021 | 46 | 161 | 0.0 | 0.0 | 0.00 | 0.00 | 0.00 | 94 | 1018.8 |
| 20260506104525 | 47 | 161 | 0.0 | 1.7 | 0.00 | 0.00 | 0.00 | 94 | 1018.7 |
| 20260506103026 | 47 | 158 | 0.0 | 0.0 | 0.00 | 0.00 | 0.00 | 94 | 1018.7 |
| 20260506101517 | 47 | 160 | 0.0 | 0.0 | 0.00 | 0.00 | 0.00 | 94 | 1018.7 |
| 20260506100017 | 47 | 160 | 0.0 | 0.0 | 0.00 | 0.00 | 0.00 | 94 | 1018.6 |
| 20260506094519 | 47 | 162 | 0.0 | 0.9 | 0.00 | 0.00 | 0.00 | 93 | 1018.6 |
| 20260506093016 | 47 | 157 | 0.0 | 0.9 | 0.00 | 0.00 | 0.00 | 94 | 1018.5 |
| 20260506091517 | 47 | 161 | 0.0 | 1.7 | 0.00 | 0.00 | 0.00 | 93 | 1018.4 |
| 20260506090018 | 47 | 161 | 0.0 | 1.7 | 0.00 | 0.00 | 0.00 | 93 | 1018.5 |
| 20260506084509 | 47 | 160 | 0.0 | 1.7 | 0.00 | 0.00 | 0.00 | 91 | 1018.4 |
| 20260506083006 | 48 | 149 | 0.0 | 0.0 | 0.00 | 0.00 | 0.00 | 91 | 1018.5 |
| 20260506081505 | 48 | 149 | 0.0 | 0.0 | 0.00 | 0.00 | 0.00 | 91 | 1018.5 |
| 20260506073103 | 49 | 149 | 0.0 | 0.0 | 0.00 | 0.00 | 0.00 | 90 | 1018.4 |
| 20260506071558 | 50 | 149 | 0.0 | 0.0 | 0.00 | 0.00 | 0.00 | 89 | 1018.2 |
| 20260506061600 | 51 | 149 | 0.0 | 0.0 | 0.00 | 0.00 | 0.00 | 84 | 1017.6 |
| 20260506050104 | 51 | 176 | 0.0 | 0.9 | 0.00 | 0.00 | 0.00 | 84 | 1017.1 |
| 20260506044550 | 51 | 176 | 0.0 | 0.0 | 0.00 | 0.00 | 0.00 | 84 | 1017.0 |
| 20260506043044 | 52 | 176 | 0.0 | 0.0 | 0.00 | 0.00 | 0.00 | 84 | 1016.8 |
| 20260506041542 | 52 | 176 | 0.0 | 0.0 | 0.00 | 0.00 | 0.00 | 82 | 1016.6 |
| 20260506040043 | 53 | 176 | 0.0 | 0.0 | 0.00 | 0.00 | 0.00 | 81 | 1016.4 |
| 20260506034540 | 53 | 147 | 0.9 | 3.5 | 0.00 | 0.00 | 0.00 | 79 | 1016.1 |
| 20260506033038 | 53 | 183 | 3.5 | 8.7 | 0.00 | 0.00 | 0.00 | 83 | 1015.8 |
| 20260506031544 | 53 | 199 | 4.3 | 8.7 | 0.00 | 0.00 | 0.00 | 84 | 1015.5 |
| 20260506030032 | 53 | 226 | 3.5 | 7.0 | 0.00 | 0.00 | 0.00 | 85 | 1015.2 |
| 20260506024541 | 54 | 201 | 4.3 | 7.8 | 0.00 | 0.00 | 0.00 | 83 | 1015.1 |
| 20260506023031 | 55 | 196 | 3.5 | 7.8 | 0.00 | 0.00 | 0.00 | 81 | 1015.0 |
| 20260506021532 | 55 | 149 | 6.1 | 11.3 | 0.00 | 0.00 | 0.00 | 80 | 1014.9 |
| 20260506020029 | 56 | 165 | 5.2 | 10.4 | 0.00 | 0.00 | 0.00 | 79 | 1014.8 |
| 20260506014531 | 56 | 185 | 6.1 | 10.4 | 0.00 | 0.00 | 0.00 | 79 | 1014.9 |
| 20260506013053 | 57 | 227 | 5.2 | 8.7 | 0.00 | 0.00 | 0.00 | 77 | 1014.8 |
| 20260506011534 | 57 | 167 | 3.5 | 10.4 | 0.00 | 0.00 | 0.00 | 76 | 1014.9 |
| 20260506010028 | 57 | 174 | 3.5 | 8.7 | 0.00 | 0.00 | 0.00 | 75 | 1014.9 |
| 20260506004527 | 57 | 159 | 6.1 | 11.3 | 0.00 | 0.00 | 0.00 | 73 | 1014.8 |
| 20260506003027 | 58 | 190 | 5.2 | 10.4 | 0.00 | 0.00 | 0.00 | 72 | 1014.7 |
| 20260506001526 | 59 | 207 | 4.3 | 7.8 | 0.00 | 0.00 | 0.00 | 71 | 1014.7 |
| 20260506000030 | 59 | 202 | 3.5 | 10.4 | 0.00 | 0.00 | 0.00 | 72 | 1014.7 |
| 20260505234526 | 61 | 203 | 4.3 | 9.6 | 0.00 | 0.00 | 0.00 | 70 | 1014.6 |
| 20260505233025 | 61 | 150 | 2.6 | 7.8 | 0.00 | 0.00 | 0.00 | 71 | 1014.6 |
| 20260505231525 | 62 | 165 | 2.6 | 7.8 | 0.00 | 0.00 | 0.00 | 68 | 1014.7 |
| 20260505230029 | 62 | 163 | 4.3 | 9.6 | 0.00 | 0.00 | 0.00 | 68 | 1014.7 |
| 20260505224523 | 61 | 201 | 2.6 | 8.7 | 0.00 | 0.00 | 0.00 | 69 | 1014.9 |
| 20260505223028 | 62 | 196 | 2.6 | 8.7 | 0.00 | 0.00 | 0.00 | 66 | 1014.9 |
| 20260505221525 | 62 | 188 | 2.6 | 8.7 | 0.00 | 0.00 | 0.00 | 67 | 1015.0 |
| 20260505220022 | 62 | 138 | 3.5 | 7.0 | 0.00 | 0.00 | 0.00 | 67 | 1015.2 |
| 20260505214524 | 62 | 149 | 4.3 | 10.4 | 0.00 | 0.00 | 0.00 | 67 | 1015.4 |
| 20260505213019 | 61 | 132 | 2.6 | 12.2 | 0.00 | 0.00 | 0.00 | 71 | 1015.5 |
| 20260505211515 | 60 | 203 | 3.5 | 8.7 | 0.00 | 0.00 | 0.00 | 69 | 1015.6 |
| 20260505210015 | 60 | 223 | 3.5 | 8.7 | 0.00 | 0.00 | 0.00 | 72 | 1015.7 |
| 20260505204516 | 59 | 184 | 3.5 | 8.7 | 0.00 | 0.00 | 0.00 | 72 | 1015.7 |
| 20260505203014 | 60 | 170 | 2.6 | 9.6 | 0.00 | 0.00 | 0.00 | 71 | 1015.6 |